KORONAS-FOTON (33504 NORAD) Tracking and Keplerian Element Data

This shows tracking and keplerian element data for the satellite.

Feedback or suggestion? Click here.




ElementValue
Catalog33504
NameKORONAS-FOTON
Epoch Orbit52078
Epoch Day195.55437957
Epoch Year2018
RAAN202.9606
Inclination82.4413
Eccentricity0.0019
Argument of Perigee188.9046
Mean Anonmoly171.1852
Mean Motion15.15196501
Decay Rate4.34E-06
L11 33504U 09003A 18195.55437957 .00000434 00000-0 21317-4 0 9995
L22 33504 82.4413 202.9606 0019000 188.9046 171.1852 15.15196501520781

Live tracking and technical data element details for KORONAS-FOTON (NORAD 33504). KORONAS-FOTON can be tracked NOW for your location showing map with azimuth and elevation plus other details from your city location.

Track the satellite on the map from your city or location and see movement details for azimuth, elevation, latitude, longitude, range, height, and movement on the map or in text.







IsCatalogInMostPopularTable: catalog: 33504, numindb: 27
Update: records affected: 1



GetName: 33504 KORONAS-FOTON

Hit Count: updated at: Sun, 15 Jul 2018 23:01:52 GMT